Tracking 29528 objects as of 13-Sep-2024
HD Live streaming from Space Station
objects crossing your sky now

COSMOS 1470

Track COSMOS 1470 now!
10-day predictions
COSMOS 1470 is classified as:


NORAD ID: 14147
Int'l Code: 1983-061A
Perigee: 487.8 km
Apogee: 506.0 km
Inclination: 82.5 °
Period: 94.4 minutes
Semi major axis: 6867 km
RCS: 8.3388 m2 (large)
Launch date: June 23, 1983
Source: Commonwealth of Independent States (former USSR) (CIS)
Launch site: PLESETSK MISSILE AND SPACE COMPLEX (PKMTR)
Your satellite tracking list
Your tracking list is empty




NASA's NSSDC Master Catalog

Two Line Element Set (TLE):
1 14147U 83061A   24257.17358306  .00030842  00000-0  12164-2 0  9991
2 14147  82.4769 310.7608 0013262 133.0678 227.1673 15.25335459  4815
Source of the keplerian elements: AFSPC